Other Public Products
Issued by NWS Grand Forks, ND

Home | Current Version | Previous Version | Graphics & Text | Print | Product List | Glossary On
Versions: 1 2 3 4 5 6 7 8 9 10 11 12 13 14 15 16 17 18 19 20 21 22 23 24 25 26 27 28 29 30 31 32 33 34 35 36 37 38 39 40 41 42 43 44 45 46 47 48 49 50
000
FPUS83 KFGF 270631
OPUFGF
PRAIRIE TO PINES WEATHER ROUNDUP
NATIONAL WEATHER SERVICE EASTERN NORTH DAKOTA/GRAND FORKS ND
1200 AM CST FRI FEB 27 2015

 **SATELLITE DATA USED TO AUGMENT SKY COVER AT AUTOMATED STATIONS**
 *****  WEATHER ACROSS EASTERN NORTH DAKOTA  *****

CITY           SKY/WX    TMP DP  RH WIND       PRES   REMARKS
GRAND FORKS    CLEAR     -9 -14  78 W8        30.48F WCI -25
6HR MIN TEMP:  -9; 6HR MAX TEMP:   5;

GRAND FORKS AF CLEAR     -6 -13  71 NW8       30.47F WCI -21
GRAND CITY NWS   N/A     -8 N/A N/A W6          N/A  WCI -21
BUXTON           N/A    -10 -13  84 SW9         N/A  WCI -27
DEVILS LAKE    PTCLDY   N/A N/A N/A MISG        N/A
FARGO          PTCLDY    -5 -12  72 W7        30.51F WCI -19
6HR MIN TEMP:  -6; 6HR MAX TEMP:   6;

WAHPETON ARPT  CLEAR     -6 -13  71 W6        30.51F WCI -18
$$

 *****  WEATHER ACROSS CENTRAL AND WESTERN NORTH DAKOTA  *****

CITY           SKY/WX    TMP DP  RH WIND       PRES   REMARKS
JAMESTOWN      PTCLDY    -8 -13  78 W6        30.46F WCI -21
6HR MIN TEMP:  -9; 6HR MAX TEMP:   1;

BISMARCK       CLEAR     -6 -12  75 W3        30.49F
6HR MIN TEMP:  -8; 6HR MAX TEMP:   8;

MINOT          MOCLDY    -9 -16  71 SW8       30.43F WCI -25
6HR MIN TEMP:  -9; 6HR MAX TEMP:   2;

MINOT AFB      MOCLDY   -12 -18  73 W7        30.43F WCI -27
6HR MIN TEMP: -14; 6HR MAX TEMP:  -1;

GARRISON         N/A    -14 -18  82 CALM      30.44F
6HR MIN TEMP: -16; 6HR MAX TEMP:   2;

WILLISTON      MOCLDY   -12 -16  82 CALM      30.41F
6HR MIN TEMP: -13; 6HR MAX TEMP:   8;

DICKINSON      CLEAR     -5 -11  75 S8        30.35F WCI -20
6HR MIN TEMP:  -5; 6HR MAX TEMP:   9;

HETTINGER      CLEAR     -8 -12  83 CALM      30.38F
6HR MIN TEMP:  -8; 6HR MAX TEMP:  10;

$$

 *****  OTHER OBSERVATIONS NORTHEAST NORTH DAKOTA  *****

CITY           SKY/WX    TMP DP  RH WIND       PRES   REMARKS
WALHALLA         N/A      0  -9  65 W5        30.44S WCI -10
LANGDON        NOT AVBL
CAVALIER       FAIR      -2  -9  71 W8        30.44F WCI -17
GRAFTON        NOT AVBL
CANDO          FAIR     -11 -17  77 W8        30.43F WCI -28
FORT TOTTEN      N/A     -7 -13  74 W3        29.95
ROLLA          FAIR      -9 -17  70 W7        30.38F WCI -24
RUGBY          FAIR     -13 -18  77 W5        30.44F WCI -25
 ***** THE ABOVE OBSERVATIONS ARE NON NWS ARE NOT QUALITY
        CONTROLLED AND MAY MIS-REPORT RAIN FOR SNOW...
$$

 *****  OTHER OBSERVATIONS SOUTHEAST NORTH DAKOTA *****

CITY           SKY/WX    TMP DP  RH WIND       PRES   REMARKS
COOPERSTOWN    NOT AVBL
VALLEY CITY    FAIR      -6 -11  77 NW10      30.46F WCI -23
OAKES            N/A     -8 N/A N/A W6        30.49F WCI -21
GWINNER        CLEAR     -4 -13  65 W8        30.50F WCI -19
SHEYENNE NWR     N/A    -12 -19  71 W6        29.95S WCI -26
BUFFALO        NOT AVBL
WYNDMERE         N/A     -8 -13  77 W7          N/A  WCI -22
 ***** THE ABOVE OBSERVATIONS ARE NON NWS ARE NOT QUALITY
       CONTROLLED AND MAY MIS-REPORT RAIN FOR SNOW...
$$

  *****  WEATHER ACROSS NORTHERN MINNESOTA  *****

CITY           SKY/WX    TMP DP  RH WIND       PRES   REMARKS
FLAG ISLAND    PTCLDY    -6 -11  77 CALM      30.36F
WARROAD        PTCLDY    -6 -11  77 W7        30.39S WCI -20
ROSEAU         FAIR      -6 -11  77 SW6       30.40F WCI -18
HALLOCK        MOCLDY    -9 -15  77 SW3       30.44F
THF RVR FALLS  MOCLDY    -8 -18  59 CALM      30.43S
6HR MIN TEMP:  -9; 6HR MAX TEMP:   1;

HALSTAD          N/A     -7 -13  76 W8          N/A  WCI -23
FOSSTON        PTCLDY   -17 -20  83 S5        30.43F WCI -29
BAUDETTE       PTCLDY    -8 -12  83 W5        30.36F WCI -19
6HR MIN TEMP:  -9; 6HR MAX TEMP:   3;

WASKISH        PTCLDY    -6  -9  84 SW8       30.39F WCI -21
CROOKSTON      PTCLDY    -9 -15  77 W6        30.48S WCI -23
$$
  *****  WEATHER ACROSS CENTRAL AND WEST MINNESOTA  *****

CITY           SKY/WX    TMP DP  RH WIND       PRES   REMARKS
BEMIDJI        PTCLDY    -8 -12  83 W5        30.40S WCI -19
PARK RAPIDS    CLEAR     -9 -15  75 CALM      30.41S
6HR MIN TEMP: -11; 6HR MAX TEMP:   1;

WADENA         CLEAR     -8 -11  84 W5        30.43S WCI -19
DETROIT LAKES  CLEAR     -4  -8  84 NW8       30.44S WCI -19
MOORHEAD       PTCLDY    -6  -9  84 W7        30.50F WCI -20
FERGUS FALLS   CLEAR     -6 -11  77 NW6       30.53S WCI -18
ELBOW LAKE     FAIR      -7 -11  82 W5        30.48S WCI -18
6HR MIN TEMP:  -8; 6HR MAX TEMP:   2;

MORRIS MN      CLEAR     -8 -13  77 NW6       30.48F WCI -21
STAPLES        CLEAR    -13 -17  84 W5        30.43F WCI -25
WHEATON        CLEAR     -9 -15  77 W6        30.53F WCI -23
$$
  *****  WEATHER ELSEWHERE ACROSS MINNESOTA  *****

CITY           SKY/WX    TMP DP  RH WIND       PRES   REMARKS
DULUTH         CLEAR     -2 -14  56 NW13      30.34F WCI -20
6HR MIN TEMP:  -2; 6HR MAX TEMP:   6;

INTRNTL FALLS  PTCLDY   -16 -20  82 SW3       30.37S
6HR MIN TEMP: -16; 6HR MAX TEMP:   0;

ELY            CLEAR    -11 -18  70 SW5       30.33S WCI -23
CLOQUET        CLEAR     -4 -15  59 W7        30.38R WCI -18
BRAINERD       CLEAR     -6 -14  68 W6        30.44S WCI -19
6HR MIN TEMP:  -7; 6HR MAX TEMP:   5;

HIBBING        CLEAR     -5 -13  68 NW7       30.36F WCI -19
6HR MIN TEMP:  -6; 6HR MAX TEMP:   4;

ALEXANDRIA     CLEAR     -6 -10  83 W7        30.45S WCI -20
6HR MIN TEMP:  -8; 6HR MAX TEMP:   1;

SAINT CLOUD    CLEAR     -3  -9  75 NW7       30.47S WCI -16
6HR MIN TEMP:  -3; 6HR MAX TEMP:   4;

MINNEAPOLIS    CLEAR      1  -9  62 NW6       30.49S WCI -10
6HR MIN TEMP:   1; 6HR MAX TEMP:   7;

$$

  *****  WEATHER ACROSS SOUTH DAKOTA  *****

CITY           SKY/WX    TMP DP  RH WIND       PRES   REMARKS
SIOUX FALLS    CLEAR     -6 -11  79 NW3       30.52S
6HR MIN TEMP:  -6; 6HR MAX TEMP:   2;

BROOKINGS      NOT AVBL
WATERTOWN      PTCLDY    -6 -12  75 W6        30.45F WCI -19
6HR MIN TEMP:  -9; 6HR MAX TEMP:   1;

HURON          MOCLDY   -16 -20  82 W7        30.54F WCI -32
6HR MIN TEMP: -16; 6HR MAX TEMP:   2;

SISSETON         N/A     -2  -9  72 NW12      30.49F WCI -20
ABERDEEN       CLEAR     -6 -12  75 NW8       30.53F WCI -21
6HR MIN TEMP: -10; 6HR MAX TEMP:   5;

MITCHELL       CLEAR     -3  -9  75 W5        30.56F WCI -13
PIERRE         CLEAR     -3 -10  72 CALM      30.50F
6HR MIN TEMP:  -5; 6HR MAX TEMP:  10;

MOBRIDGE       PTCLDY    -9 -13  83 N5        30.45F WCI -20
RAPID CITY     PTCLDY    -9 -14  78 NW5       30.35F WCI -20
6HR MIN TEMP: -10; 6HR MAX TEMP:   7;

$$

  *****  SOME WEATHER IN NEARBY STATES *****

CITY           SKY/WX    TMP DP  RH WIND       PRES   REMARKS
GLASGOW MT     CLEAR      2  -5  72 E12       30.30F WCI -15
6HR MIN TEMP:   2; 6HR MAX TEMP:  11;

GREAT FALLS MT CLEAR     10   4  76 S7        30.02F WCI  -1
6HR MIN TEMP:   5; 6HR MAX TEMP:  15;

CHEYENNE WY    LGT SNOW   6   2  83 S14       30.04F FOG     WCI -11
6HR MIN TEMP:   6; 6HR MAX TEMP:  10; 6HR PCP:  0.07;

SCOTTSBLUFF NE CLOUDY     9   0  67 E13       30.28F WCI  -7
6HR MIN TEMP:   7; 6HR MAX TEMP:  15;

OMAHA NE       CLEAR      2  -3  80 N3        30.59S
6HR MIN TEMP:   0; 6HR MAX TEMP:   9;

DES MOINES IA  CLEAR     -1  -8  72 NW5       30.56S WCI -11
6HR MIN TEMP:  -1; 6HR MAX TEMP:   7;

DAVENPORT IA   CLEAR    -13 -19  75 W9        30.50R WCI -31
6HR MIN TEMP: -13; 6HR MAX TEMP:   5;

CHICAGO IL     PTCLDY     1  -8  66 NW7       30.42R WCI -12
6HR MIN TEMP:   0; 6HR MAX TEMP:  11;

EAU CLAIRE WI  CLEAR     -3 -12  65 W3        30.45S
6HR MIN TEMP:  -4; 6HR MAX TEMP:   7;

LA CROSSE WI   CLEAR     -3 -10  72 CALM      30.49S
6HR MIN TEMP:  -6; 6HR MAX TEMP:   6;

$$

  *****  SOME NATIONAL WEATHER *****

CITY           SKY/WX    TMP DP  RH WIND       PRES   REMARKS
LA GUARDIA NY  CLOUDY    22   8  55 N9        30.17R WCI  12



USA.gov is the U.S. government's official web portal to all federal, state and local government web resources and services.